Location: Newark
(50.4348°N, 30.5552°E)
Time: 03:28:59
(UTC+00:00)

Altair - Pass Details

Date: 22 January 2020
Orbit: 1502 x 1682 km, 47.2° (Epoch: 17 February)

Event Time Altitude Azimuth Distance (km) Brightness Sun altitude
Rises 09:06:54 0° 250° (WSW) 4,915 10.2 18.5°
Reaches altitude 10° 09:10:03 10° 248° (WSW) 3,937 9.8 18.6°
Maximum altitude 09:20:08 71° 168° (SSE) 1,761 8.5 19.0°
Drops below altitude 10° 09:30:08 10° 87° (E) 3,909 9.8 19.3°
Sets 09:33:15 0° 86° (E) 4,879 10.2 19.4°
